Lincoln, IL

1:19 AM CDT on October 23, 2019 (GMT -0500)
Lincoln

Weather History for KAAA - August, 2019

Change the Weather History Date:

Tuesday, August 27, 2019

  Actual Average (KSPI) Record (KSPI)
Temperature  
Mean Temperature 74 °F 73 °F  
Max Temperature 82 °F 84 °F 97 °F (1983)
Min Temperature 66 °F 62 °F 51 °F (1967)
Degree Days  
Heating Degree Days 0 0  
Month to date heating degree days 0  
Since 1 June heating degree days 16  
Since 1 July heating degree days 1  
Cooling Degree Days 10 8  
Month to date cooling degree days 259  
Year to date cooling degree days 938  
Since 1 June cooling degree days 834  
Growing Degree Days 24 (Base 50)    
Moisture  
Dew Point 65 °F    
Average Humidity 75    
Maximum Humidity 99    
Minimum Humidity 48    
Precipitation  
Precipitation 0.00 in 0.11 in 0.67 in (1907)
Month to date precipitation 2.83  
Year to date precipitation 25.24  
Snow  
Snow - 0.00 in 0.00 in ()
Month to date snowfall 0.0  
Since 1 June snowfall 0.0  
Since 1 July snowfall 0.0  
Snow Depth -    
Sea Level Pressure  
Sea Level Pressure 29.89 in    
Wind  
Wind Speed 2 mph ()    
Max Wind Speed 9 mph    
Max Gust Speed 17 mph    
Visibility 9.9 miles    
Events Thunderstorm    
T = Trace of Precipitation, MM = Missing Value Source: Averaged Metar Reports

Daily Weather History Graph

Daily Weather History Graph

Search for Another Location

Airport or City:

Astronomy

Aug. 27, 2019 Rise Set
Actual Time 6:19 AM CDT 7:37 PM CDT
Civil Twilight 5:51 AM CDT 8:05 PM CDT
Nautical Twilight 5:17 AM CDT 8:38 PM CDT
Astronomical Twilight 4:42 AM CDT 9:14 PM CDT
Moon 2:44 AM CDT (8/27) 5:58 PM CDT (8/27)
Length of Visible Light 14h 13m
Length of Day
13h 17m
Waning Crescent, 11% of the Moon is Illuminated
Aug 27
Waning Crescent
Aug 30
New
Sep 5
First Quarter
Sep 13
Full
Sep 21
Last Quarter

Hourly Weather History & Observations

Time (CDT) Temp. Heat Index Dew Point Humidity Pressure Visibility Wind Dir Wind Speed Gust Speed Precip Events Conditions
12:15 AM 71.1 °F - 69.3 °F 94% 29.79 in 10.0 mi Calm Calm - N/A   Mostly Cloudy
12:35 AM 70.7 °F - 69.1 °F 95% 29.80 in 10.0 mi Calm Calm - N/A   Mostly Cloudy
12:55 AM 70.7 °F - 69.1 °F 95% 29.80 in 10.0 mi Calm Calm - N/A   Scattered Clouds
1:15 AM 70.2 °F - 69.1 °F 96% 29.81 in 10.0 mi Calm Calm - N/A   Scattered Clouds
1:35 AM 70.7 °F - 69.3 °F 95% 29.83 in 10.0 mi WSW 3.5 mph - N/A   Mostly Cloudy
1:55 AM 70.5 °F - 69.6 °F 97% 29.82 in 10.0 mi Calm Calm - N/A   Mostly Cloudy
2:15 AM 70.3 °F - 69.6 °F 98% 29.82 in 10.0 mi Calm Calm - N/A   Overcast
2:35 AM 70.2 °F - 69.8 °F 99% 29.83 in 10.0 mi Calm Calm - N/A Thunderstorm Overcast
2:50 AM 70.2 °F - 69.4 °F 98% 29.82 in 10.0 mi Calm Calm - N/A   Overcast
3:15 AM 70.7 °F - 69.1 °F 95% 29.83 in 10.0 mi Calm Calm - N/A   Overcast
3:35 AM 70.7 °F - 69.1 °F 95% 29.83 in 10.0 mi Calm Calm - N/A   Overcast
3:55 AM 70.2 °F - 68.9 °F 96% 29.82 in 10.0 mi Calm Calm - N/A   Overcast
4:15 AM 69.8 °F - 68.9 °F 97% 29.83 in 10.0 mi Calm Calm - N/A   Mostly Cloudy
4:35 AM 69.4 °F - 68.7 °F 98% 29.84 in 10.0 mi Calm Calm - N/A   Scattered Clouds
4:55 AM 69.3 °F - 68.5 °F 98% 29.84 in 10.0 mi Calm Calm - N/A   Scattered Clouds
5:15 AM 69.3 °F - 68.4 °F 97% 29.84 in 10.0 mi West 3.5 mph - N/A   Overcast
5:35 AM 69.1 °F - 68.2 °F 97% 29.84 in 10.0 mi Calm Calm - N/A   Overcast
5:55 AM 68.9 °F - 68.0 °F 97% 29.85 in 10.0 mi Calm Calm - N/A   Overcast
6:15 AM 68.7 °F - 67.8 °F 97% 29.85 in 10.0 mi WNW 3.5 mph - N/A   Overcast
6:35 AM 68.2 °F - 67.6 °F 98% 29.85 in 10.0 mi Calm Calm - N/A   Overcast
6:55 AM 68.0 °F - 67.6 °F 99% 29.86 in 10.0 mi Calm Calm - N/A   Overcast
7:15 AM 67.8 °F - 67.5 °F 99% 29.87 in 7.0 mi Calm Calm - N/A   Overcast
7:35 AM 67.6 °F - 67.3 °F 99% 29.87 in 7.0 mi Calm Calm - N/A   Overcast
8:15 AM 68.7 °F - 67.5 °F 96% 29.88 in 10.0 mi Calm Calm - N/A   Overcast
8:35 AM 69.3 °F - 67.3 °F 93% 29.88 in 10.0 mi WNW 3.5 mph - N/A   Mostly Cloudy
8:55 AM 70.2 °F - 67.1 °F 90% 29.89 in 10.0 mi NNW 4.6 mph - N/A   Mostly Cloudy
9:15 AM 71.6 °F - 67.5 °F 87% 29.89 in 10.0 mi NNW 3.5 mph - N/A   Scattered Clouds
9:35 AM 72.7 °F - 67.3 °F 83% 29.89 in 10.0 mi WSW 4.6 mph - N/A   Clear
9:55 AM 74.5 °F - 67.6 °F 79% 29.90 in 10.0 mi Calm Calm - N/A   Clear
10:15 AM 75.7 °F - 68.4 °F 78% 29.90 in 10.0 mi SW 4.6 mph - N/A   Clear
10:35 AM 77.2 °F - 69.3 °F 76% 29.90 in 10.0 mi SSW 5.8 mph - N/A   Scattered Clouds
10:55 AM 76.8 °F - 68.2 °F 75% 29.90 in 10.0 mi WSW 3.5 mph - N/A   Clear
11:15 AM 78.3 °F - 68.2 °F 71% 29.90 in 10.0 mi Calm Calm - N/A   Scattered Clouds
11:35 AM 79.9 °F - 67.8 °F 66% 29.90 in 10.0 mi WSW 3.5 mph - N/A   Scattered Clouds
11:55 AM 80.1 °F 82.4 °F 67.3 °F 65% 29.89 in 10.0 mi SW 4.6 mph - N/A   Scattered Clouds
12:15 PM 80.4 °F 82.7 °F 66.7 °F 63% 29.89 in 10.0 mi WSW 6.9 mph - N/A   Scattered Clouds
12:35 PM 81.5 °F 83.7 °F 66.2 °F 60% 29.89 in 10.0 mi NW 5.8 mph - N/A   Mostly Cloudy
12:55 PM 82.0 °F 83.9 °F 65.7 °F 57% 29.89 in 10.0 mi West 8.1 mph - N/A   Mostly Cloudy
1:15 PM 82.0 °F 83.8 °F 64.8 °F 56% 29.89 in 10.0 mi WNW 5.8 mph - N/A   Scattered Clouds
1:35 PM 82.0 °F 83.3 °F 63.5 °F 53% 29.90 in 10.0 mi West 5.8 mph - N/A   Scattered Clouds
1:55 PM 81.1 °F 82.5 °F 63.5 °F 55% 29.90 in 10.0 mi West 6.9 mph - N/A   Scattered Clouds
2:15 PM 81.9 °F 83.2 °F 63.9 °F 54% 29.90 in 10.0 mi West 8.1 mph - N/A   Scattered Clouds
2:35 PM 82.4 °F 83.5 °F 63.1 °F 52% 29.90 in 10.0 mi West 6.9 mph - N/A   Scattered Clouds
2:55 PM 80.6 °F 81.8 °F 62.6 °F 54% 29.91 in 10.0 mi West 8.1 mph - N/A   Scattered Clouds
3:15 PM 81.9 °F 82.8 °F 61.9 °F 51% 29.91 in 10.0 mi West 9.2 mph 17.3 mph N/A   Scattered Clouds
3:35 PM 82.4 °F 83.0 °F 61.7 °F 49% 29.90 in 10.0 mi West 6.9 mph - N/A   Scattered Clouds
3:55 PM 82.4 °F 83.0 °F 61.3 °F 49% 29.90 in 10.0 mi WNW 8.1 mph - N/A   Scattered Clouds
4:15 PM 81.9 °F 82.3 °F 60.3 °F 48% 29.91 in 10.0 mi West 5.8 mph 16.1 mph N/A   Scattered Clouds
4:35 PM 80.6 °F 81.1 °F 59.4 °F 48% 29.91 in 10.0 mi West 8.1 mph - N/A   Mostly Cloudy
4:55 PM 80.6 °F 81.6 °F 61.5 °F 52% 29.90 in 10.0 mi NW 4.6 mph - N/A   Scattered Clouds
5:15 PM 80.6 °F 81.5 °F 60.8 °F 51% 29.90 in 10.0 mi WNW 5.8 mph - N/A   Clear
5:35 PM 81.0 °F 81.6 °F 59.9 °F 49% 29.92 in 10.0 mi WNW 5.8 mph - N/A   Scattered Clouds
5:55 PM 80.4 °F 81.0 °F 58.8 °F 48% 29.92 in 10.0 mi West 6.9 mph - N/A   Scattered Clouds
6:15 PM 79.5 °F - 58.5 °F 48% 29.92 in 10.0 mi West 5.8 mph - N/A   Clear
6:35 PM 78.8 °F - 58.1 °F 49% 29.93 in 10.0 mi West 5.8 mph - N/A   Clear
6:55 PM 77.7 °F - 58.5 °F 51% 29.93 in 10.0 mi West 4.6 mph - N/A   Clear
7:15 PM 76.5 °F - 59.0 °F 55% 29.93 in 10.0 mi West 3.5 mph - N/A   Clear
7:35 PM 75.4 °F - 59.4 °F 57% 29.94 in 10.0 mi West 3.5 mph - N/A   Clear
7:55 PM 74.5 °F - 59.7 °F 60% 29.94 in 10.0 mi Calm Calm - N/A   Clear
8:15 PM 73.2 °F - 60.1 °F 63% 29.95 in 10.0 mi Calm Calm - N/A   Scattered Clouds
8:35 PM 72.5 °F - 60.8 °F 67% 29.95 in 10.0 mi Calm Calm - N/A   Scattered Clouds
8:55 PM 72.3 °F - 61.2 °F 68% 29.96 in 10.0 mi Calm Calm - N/A   Scattered Clouds
9:15 PM 72.5 °F - 61.3 °F 68% 29.97 in 10.0 mi West 3.5 mph - N/A   Scattered Clouds
9:35 PM 71.8 °F - 61.5 °F 70% 29.97 in 10.0 mi West 3.5 mph - N/A   Scattered Clouds
9:55 PM 71.1 °F - 61.3 °F 71% 29.97 in 10.0 mi Calm Calm - N/A   Clear
10:15 PM 70.2 °F - 61.2 °F 73% 29.98 in 10.0 mi Calm Calm - N/A   Clear
10:35 PM 69.3 °F - 61.2 °F 75% 29.98 in 10.0 mi Calm Calm - N/A   Clear
10:55 PM 68.7 °F - 61.0 °F 76% 29.98 in 10.0 mi Calm Calm - N/A   Clear
11:10 PM 68.5 °F - 61.0 °F 77% 29.98 in 10.0 mi Calm Calm - N/A   Clear
11:35 PM 67.3 °F - 61.0 °F 80% 29.98 in 10.0 mi Calm Calm - N/A   Scattered Clouds
11:55 PM 66.2 °F - 60.8 °F 83% 29.98 in 10.0 mi Calm Calm - N/A   Scattered Clouds